Location: *
(58.4167°N, 22.5000°E)
Time: 20:02:03
(UTC+00:00)

Cosmos 1452 Rocket - Pass Details

Date: 22 September 2019
Orbit: 767 x 775 km, 74.1° (Epoch: 21 October)

Event Time Altitude Azimuth Distance (km) Brightness Sun altitude
Rises 20:04:25 0° 226° (SW) 3,233 6.7 -25.4°
Reaches altitude 10° 20:06:50 10° 231° (SW) 2,310 6.0 -25.6°
Maximum altitude 20:11:59 54° 309° (NW) 934 4.2 -26.0°
Drops below altitude 10° 20:17:09 10° 27° (NNE) 2,324 6.3 -26.4°
Sets 20:19:36 0° 32° (NNE) 3,254 7.0 -26.6°
